sat.trackr.live / text

‹ back to catalog

STARLINK-2439

NORAD 48104 · 2021-027N

PAYLOAD ACTIVE UNKNOWN

§ Identity

Operator
Country
US
Launch date
2021-04-07
Launch site
AFETR
Launch vehicle
Mass (kg)
RCS (m²)

Purposes: comms

External: N2YO · Heavens-Above · Gunter

§ Orbital elements

Epoch: 2026-09-12T16:23:32.076096Z

Period
94.01 min
Inclination
53.1613°
Eccentricity
0.0001556
Mean motion
15.31701208 rev/d
Perigee alt
469.7 km
Apogee alt
471.8 km
Semi-major
6,848.9 km
B*
1.5291e-4
RAAN
2.5629°
Arg perigee
66.8592°
Mean anomaly
293.2573°
Rev number
30,134

§ Raw data

STARLINK-24391 48104U 21027N   26255.68301014  .00004383  00000+0  15291-3 0  99902 48104  53.1613   2.5629 0001556  66.8592 293.2573 15.31701208301345

JSON: /api/v1/satellites/48104 · /tle

For live sub-satellite position, see the globe view (requires WebGL).

§ Visibility from observer

Set your observer location to see the next 7 days of passes ≥ 10°. The values pass through the URL so the page stays shareable.

No JS? Fill the form by hand. The geolocation button needs JavaScript.